Location: Unspecified
(43.4680°N, 87.1740°E)
Time: 21:44:49
(UTC+00:00)

SPOT 5 - Pass Details

Date: 17 April 2021
Orbit: 624 x 814 km, 98.2° (Epoch: 12 May)

Event Time Altitude Azimuth Distance (km) Brightness Sun altitude
Exits shadow 15:33:36 52° 45° (NE) 830 3.1 -25.1°
Drops below altitude 10° 15:37:39 10° 355° (N) 2,147 6.0 -25.6°
Sets 15:40:00 0° 351° (N) 3,099 7.0 -25.9°
